SCP
7 7 7 8 8 8 9 10 10 10 10 8 7 6 6 5 5 4 3 2 2 1 1 1 1 2 2 2 2 2 1 1 0 0 0 0 0 0 0 0 0 0 0
7 7 7 8 8 8 9 10 10 10 10 9 7 6 6 6 6 6 4 3 2 1 1 1 1 1 1 2 2 2 1 1 0 0 0 0 0 0 0 0 0 0 0
6 7 8 8 7 7 9 11 11 10 10 8 7 6 7 7 7 7 6 3 2 1 1 1 1 1 1 1 1 1 1 1 0 0 0 0 0 0 0 0 0 0 0
7 8 8 7 6 6 8 10 10 9 8 7 6 6 7 8 8 8 6 4 2 1 1 1 1 1 1 1 1 1 0 0 0 0 0 0 0 0 0 0 0 0 0
7 8 8 7 5 6 7 8 8 7 5 4 4 5 6 6 7 7 5 3 1 0 0 0 1 1 1 1 1 0 0 0 0 0 0 0 0 0 0 0 0 0 0
6 6 7 6 6 6 7 7 6 4 3 3 3 4 4 4 5 5 3 2 1 0 0 0 0 1 1 1 1 0 0 0 0 0 0 0 0 0 0 0 0 0 0
4 5 5 5 4 5 5 5 4 3 2 2 2 2 2 2 2 2 2 1 1 0 0 0 0 1 1 0 0 0 0 0 0 0 0 0 0 0 0 0 0 0 0
3 4 4 3 3 3 3 3 3 2 1 1 1 1 1 1 1 1 1 1 0 0 0 0 0 0 0 0 0 0 0 0 0 0 0 0 0 0 0 0 0 0 0
3 3 3 2 2 2 2 2 2 1 1 1 1 1 0 0 0 0 0 0 0 0 0 0 0 0 0 0 0 0 0 0 0 0 0 0 0 0 0 0 0 0 0
2 2 2 1 1 1 1 1 1 1 1 0 0 0 0 0 0 0 0 0 0 0 0 0 0 0 0 0 0 0 0 0 0 0 0 0 0 0 0 0 0 0 0
1 1 0 0 0 0 1 1 1 1 1 0 0 0 0 0 0 0 0 0 0 0 0 0 0 0 0 0 0 0 0 0 0 0 0 0 0 0 0 0 0 0 0
0 0 0 0 0 0 0 0 1 1 0 0 0 0 0 0 0 0 0 0 0 0 0 0 0 0 0 0 0 0 0 0 0 0 0 0 0 0 0 0 0 0 0
0 0 0 0 0 0 0 0 0 0 0 0 0 0 0 0 0 0 0 0 0 0 0 0 0 0 0 0 0 0 0 0 0 0 0 0 0 0 0 0 0 0 0
0 0 0 0 0 0 0 0 0 0 0 0 0 0 0 0 0 0 0 0 0 0 0 0 0 0 0 0 0 0 0 0 0 0 0 0 0 0 0 0 0 0 0
0 0 0 0 0 0 0 0 0 0 0 0 0 0 0 0 0 0 0 0 0 0 0 0 0 0 0 0 0 0 0 0 0 0 0 0 0 0 0 0 0 0 0
0 0 0 0 0 0 0 0 0 0 0 0 0 0 0 0 0 0 0 0 0 0 0 0 0 0 0 0 0 0 0 0 0 0 0 0 0 0 0 0 0 0 0
0 0 0 0 0 0 0 0 0 0 0 0 0 0 0 0 0 0 0 0 0 0 0 0 0 0 0 0 0 0 0 0 0 0 0 0 0 0 0 0 0 0 0
0 0 0 0 0 0 0 0 0 0 0 0 0 0 0 0 0 0 0 0 0 0 0 0 0 0 0 0 0 0 0 0 0 0 0 0 0 0 0 0 0 0 0
0 0 0 0 0 0 0 0 0 0 0 0 0 0 0 0 0 0 0 0 0 0 0 0 0 0 0 0 0 0 0 0 0 0 0 0 0 0 0 0 0 0 0
0 0 0 0 0 0 0 0 0 0 0 0 0 0 0 0 0 0 0 0 0 0 0 0 0 0 0 0 0 0 0 0 0 0 0 0 0 0 0 0 0 0 0
0 0 0 0 0 0 0 0 0 0 0 0 0 0 0 0 0 0 0 0 0 0 0 0 0 0 0 0 0 0 0 0 0 0 0 0 0 0 0 0 0 0 0
0 0 0 0 0 0 0 0 0 0 0 0 0 0 0 0 0 0 0 0 0 0 0 0 0 0 0 0 0 0 0 0 0 0 0 0 0 0 0 0 0 0 0
0 0 0 0 0 0 0 0 0 0 0 0 0 0 0 0 0 0 0 0 0 0 0 0 0 0 0 0 0 0 0 0 0 0 0 0 0 0 0 0 0 0 0
0 0 0 0 0 0 0 0 0 0 0 0 0 0 0 0 0 0 0 0 0 0 0 0 0 0 0 0 0 0 0 0 0 0 0 0 0 0 0 0 0 0 0
0 0 0 0 0 0 0 0 0 0 0 0 0 0 0 0 0 0 0 0 0 0 0 0 0 0 0 0 0 0 0 0 0 0 0 0 0 0 0 0 0 0 0
0 0 0 0 0 0 0 0 0 0 0 0 0 0 0 0 0 0 0 0 0 0 0 0 0 0 0 0 0 0 0 0 0 0 0 0 0 0 0 0 0 0 0
Wind_Speed
8 8 8 8 7 6 5 4 3 2 2 2 3 3 2 2 2 2 1 2 2 2 2 1 2 2 3 4 5 5 6 5 6 6 5 5 5 5 4 4 5 6 6
8 9 9 8 7 6 5 4 4 2 3 3 3 2 3 2 2 2 3 3 3 2 1 1 2 2 2 3 5 5 5 4 4 5 5 4 3 4 4 3 4 5 4
8 8 8 8 7 7 5 4 4 3 2 3 3 4 4 3 3 2 3 4 4 3 2 2 2 1 2 3 3 5 6 5 2 2 5 6 5 3 2 3 3 4 4
9 8 9 9 8 7 6 6 6 5 4 3 4 5 5 4 3 3 3 4 4 4 3 3 2 2 2 2 2 3 4 6 4 1 1 3 6 6 4 2 2 3 4
8 9 9 8 7 7 6 6 6 6 6 5 4 5 5 4 4 4 5 5 4 5 5 4 3 3 2 3 3 4 4 3 3 3 2 3 3 3 5 5 3 2 2
8 9 9 8 8 7 7 7 6 7 7 6 5 6 7 6 6 5 5 4 3 4 6 5 4 4 3 3 3 4 5 4 5 3 3 3 3 3 4 5 4 3 1
8 8 8 9 8 8 7 7 7 7 7 7 7 7 7 7 7 5 5 4 4 4 5 5 5 4 5 5 5 6 6 5 6 5 3 3 2 3 3 6 5 3 2
7 8 8 7 7 7 7 7 7 8 8 7 7 7 7 6 5 6 5 5 4 4 5 6 6 6 7 7 7 7 6 6 6 7 5 4 3 3 3 4 6 5 2
7 7 7 7 7 6 7 7 7 7 7 7 7 8 7 7 7 7 6 5 4 5 6 7 7 7 8 8 7 6 6 6 7 6 6 5 3 3 3 4 5 6 5
7 7 6 6 6 6 6 7 7 7 6 6 6 6 7 7 7 6 7 6 6 6 7 7 8 8 8 8 8 7 7 8 7 6 7 6 4 4 4 4 3 3 5
6 6 6 5 5 6 6 6 7 7 6 6 7 7 7 6 7 7 7 6 6 6 7 7 7 8 8 7 8 8 8 9 8 7 8 7 6 5 5 5 4 4 4
7 6 6 5 5 6 6 6 6 6 6 6 7 7 7 7 7 7 6 6 7 7 7 7 8 8 8 7 7 8 8 8 8 7 8 7 7 7 5 5 5 4 4
8 7 6 5 5 5 5 5 5 6 6 6 6 6 6 6 6 6 6 6 7 7 7 8 8 7 7 7 7 7 7 7 7 7 7 6 8 8 6 6 5 4 4
8 7 5 5 4 4 4 5 5 5 5 5 6 6 6 5 5 6 6 6 7 7 7 7 7 7 7 7 7 7 7 7 7 6 6 6 7 6 6 5 5 5 5
8 7 6 5 4 4 4 4 4 4 5 5 6 5 5 5 5 6 6 6 6 7 6 7 7 7 7 6 6 6 7 6 7 6 6 6 7 8 6 4 4 5 4
9 8 7 6 5 4 4 4 4 3 4 5 4 4 4 4 5 5 5 6 6 6 7 7 7 7 6 8 10 6 5 5 6 5 5 6 7 8 9 8 6 5 5
10 9 7 6 5 4 4 4 3 3 4 4 3 3 4 4 4 5 5 5 5 6 6 6 6 6 7 10 10 9 5 5 5 5 4 4 6 6 5 7 8 6 5
10 8 7 6 5 4 4 3 3 3 3 3 4 4 4 4 4 5 5 5 4 5 4 4 5 5 7 10 10 9 6 6 5 5 5 5 4 5 5 5 6 5 3
8 7 6 6 5 4 4 4 4 4 4 4 4 4 5 5 4 5 4 3 4 4 3 3 4 5 6 9 10 8 5 5 5 4 4 4 4 6 7 6 5 5 4
8 7 6 6 5 4 4 5 5 5 4 4 4 4 4 4 4 4 3 2 3 3 3 4 3 4 4 8 9 8 4 5 4 3 3 4 4 5 6 4 3 3 3
8 7 7 6 5 5 6 6 5 4 3 3 4 4 4 3 3 3 2 3 3 4 4 4 3 4 4 6 8 7 4 3 3 2 1 2 3 4 4 3 1 1 3
8 8 7 5 4 5 6 6 4 3 3 4 3 3 2 2 3 3 3 3 4 4 4 3 3 3 4 5 6 7 5 4 3 1 1 2 3 4 4 2 3 4 3
8 7 8 6 5 5 5 5 3 3 4 4 4 3 4 3 3 3 4 3 3 3 3 3 2 2 3 4 7 8 8 6 3 1 2 3 4 3 4 5 6 4 2
8 7 8 7 5 4 4 4 3 4 5 4 3 3 4 4 4 3 3 3 3 3 3 3 2 2 2 2 3 3 3 5 4 3 4 5 5 3 3 4 4 2 1
7 7 7 6 6 5 5 4 4 4 4 3 3 3 4 4 4 4 3 3 1 3 4 3 3 3 1 1 0 1 1 2 2 2 3 4 4 4 3 3 3 2 2
7 7 7 6 6 6 5 4 4 5 4 3 2 2 3 3 3 4 4 6 4 5 5 6 5 2 3 2 1 2 2 3 2 3 2 2 2 2 2 2 2 2 2
Wind_Direction
87 78 77 74 73 71 73 90 104 128 139 155 158 142 134 129 106 88 101 109 97 117 144 167 181 193 187 177 167 152 138 133 130 115 103 67 61 72 75 93 104 106 106
78 71 67 63 61 61 62 73 85 120 151 161 161 137 122 110 88 51 47 54 68 76 113 170 176 181 171 165 163 144 139 146 158 143 131 124 83 53 57 81 107 110 108
83 72 66 60 56 51 47 55 57 62 84 113 113 113 101 92 86 61 41 35 47 57 71 77 98 122 160 173 160 154 150 153 157 154 144 148 156 133 48 53 89 111 114
75 67 60 54 47 42 41 42 48 49 48 81 112 124 119 116 105 102 77 51 41 42 50 60 64 90 110 128 142 135 137 144 152 136 94 125 140 144 136 73 62 96 110
75 72 64 59 48 41 45 44 48 47 40 46 75 101 99 100 94 91 88 70 46 41 45 50 58 67 83 94 95 107 113 125 138 138 121 96 91 104 133 145 142 92 78
74 68 62 55 46 40 47 54 54 49 46 50 58 79 94 95 95 88 85 71 54 39 40 49 55 60 64 78 95 95 100 103 103 99 100 124 135 139 130 136 142 129 100
73 64 59 54 44 35 36 48 59 54 45 55 60 66 78 85 84 82 80 76 61 49 38 46 52 56 58 65 76 82 82 90 95 94 88 84 87 117 120 126 130 118 102
74 69 62 55 47 39 37 45 55 57 49 53 60 62 70 75 73 71 73 70 65 59 53 57 57 59 64 68 69 73 71 77 85 85 83 79 66 82 110 131 135 122 93
82 74 64 57 49 47 44 47 59 64 58 57 64 62 62 72 75 71 68 66 61 64 59 64 64 63 66 70 75 76 73 76 74 78 78 73 60 64 76 102 132 136 135
86 76 66 59 54 53 54 51 56 64 64 62 69 75 66 69 74 74 68 66 61 60 60 62 63 63 64 69 76 77 72 75 69 72 73 67 61 65 65 79 82 102 125
102 87 75 65 60 55 56 57 58 59 59 62 69 74 70 67 70 71 68 66 61 59 61 62 65 64 62 65 73 76 76 76 71 70 74 68 63 64 59 64 71 78 103
110 102 94 82 67 60 59 58 62 65 62 64 70 74 73 70 70 70 64 61 60 59 62 64 65 67 64 63 72 80 77 81 79 75 73 67 70 61 57 63 65 70 82
117 110 100 89 82 72 67 64 65 70 69 70 72 71 72 74 74 71 65 63 64 62 62 65 66 66 65 64 66 72 73 74 76 77 78 72 73 66 61 64 64 67 77
125 118 107 95 89 84 81 79 75 77 80 77 77 75 71 74 73 71 68 66 67 67 66 65 63 62 63 63 64 68 70 71 71 73 76 75 76 78 75 72 69 78 78
131 127 120 110 101 95 90 86 80 77 84 86 85 84 80 76 76 72 69 68 68 70 70 69 60 56 56 55 64 68 75 75 72 66 69 75 81 80 78 87 83 84 83
140 136 132 127 120 112 104 96 89 85 90 94 94 96 92 86 82 78 72 69 66 66 70 69 65 58 54 55 61 72 73 77 80 75 64 64 56 56 58 67 86 102 106
145 143 140 137 132 127 123 113 109 107 99 96 94 92 97 91 85 89 78 75 73 73 73 71 69 62 46 51 55 65 79 78 84 86 76 65 51 48 47 47 53 58 83
147 146 142 139 137 131 128 128 125 118 111 106 101 99 100 95 86 83 81 80 78 78 76 74 71 63 44 48 54 64 72 75 80 93 97 86 51 42 57 58 49 39 33
144 144 142 138 133 134 138 128 119 113 110 106 101 102 106 104 97 94 94 90 90 86 83 84 77 67 40 43 55 69 73 75 70 76 87 91 73 55 68 67 52 31 3
134 135 131 125 125 127 120 108 103 99 101 107 108 105 101 102 103 104 105 98 107 109 98 83 73 74 54 46 60 74 81 82 73 58 50 62 74 64 71 79 68 33 337
131 128 125 125 128 122 111 108 109 113 116 110 105 98 102 108 105 95 92 102 102 97 89 82 62 57 54 48 60 72 83 96 94 75 31 356 18 28 39 67 96 314 316
131 128 125 123 122 119 115 116 120 121 101 97 95 92 96 103 105 96 89 90 103 104 99 86 59 33 32 41 49 66 74 94 99 92 313 301 326 343 351 356 331 352 18
134 133 130 123 118 121 123 125 135 121 106 98 91 87 78 70 87 100 101 90 95 105 107 104 88 39 25 25 42 55 59 69 76 347 301 314 322 335 342 340 348 8 31
136 135 131 128 129 134 135 141 142 123 111 108 99 93 88 77 67 70 85 96 104 110 113 116 114 82 38 19 15 25 34 37 32 3 349 2 15 19 347 343 359 18 23
136 136 136 138 143 141 137 141 137 122 115 114 102 94 96 99 84 69 63 88 95 167 152 157 152 139 127 295 61 90 39 17 357 5 18 22 17 13 7 5 4 9 21
136 136 137 140 142 139 142 147 142 132 127 119 115 122 122 114 108 99 61 38 56 77 116 143 142 136 159 164 87 51 20 356 15 67 44 16 11 10 3 11 5 358 354